{"data":{"norad_id":63409,"epoch":"2026-05-24T22:58:35.746752Z","epoch_age_seconds":85494,"freshness":"FRESH","line1":"1 63409U 25065L   26144.95735818  .00019971  00000+0  73322-3 0  9999","line2":"2 63409  43.0026  36.3893 0001030 227.4418 132.6347 15.27582618 64509","mean_motion":15.27582618,"eccentricity":0.000103,"inclination_deg":43.0026,"raan_deg":36.3893,"arg_perigee_deg":227.4418,"mean_anomaly_deg":132.6347,"bstar":0.00073322,"rev_number":6450,"period_min":94.266587157514,"perigee_km":482.33455545658,"apogee_km":483.74795817748,"semimajor_km":6861.178256817,"source":"CELESTRAK","updated_at":"2026-05-25T13:38:19.970325Z"}}